PHPUY EHRD-LIPK

Flight info

Callsign PHPUY
Flight time 2h 11m
Altitude 29000
Route LUNIX Z739 MISGO DCT ROLIS DCT ULNOK L607 UTABA M738 NATAG DCT GIPUK
Aircraft TBM8/L-SDFGRWY/S

Departure

Time 2026-05-04 10:42
Airport Rotterdam The Hague Airport (EHRD)

Arrival

Time 2026-05-04 12:54
Airport Forlì-Luigi Ridolfi International Airport (LIPK)
Time Latitude Longitude Altitude Speed Heading
2026-05-04 10:13 51.94826 4.43700 -5 ft 0 kts 59°
2026-05-04 10:34 51.94831 4.43711 -5 ft 6 kts 58°
2026-05-04 10:34 51.94871 4.43834 -5 ft 16 kts 57°
2026-05-04 10:34 51.94931 4.43841 -5 ft 10 kts 324°
2026-05-04 10:35 51.95022 4.43743 -5 ft 21 kts 326°
2026-05-04 10:35 51.95167 4.43591 -5 ft 28 kts 326°
2026-05-04 10:35 51.95292 4.43522 -5 ft 17 kts 57°
2026-05-04 10:35 51.95381 4.43744 -5 ft 29 kts 56°
2026-05-04 10:36 51.95509 4.44068 -5 ft 38 kts 57°
2026-05-04 10:36 51.95653 4.44424 -5 ft 35 kts 57°
2026-05-04 10:36 51.95762 4.44697 -5 ft 27 kts 57°
2026-05-04 10:36 51.95840 4.44751 -5 ft 5 kts 295°
2026-05-04 10:37 51.95842 4.44741 -5 ft 0 kts 287°
2026-05-04 10:40 51.95842 4.44740 -5 ft 1 kts 289°
2026-05-04 10:40 51.95892 4.44694 -5 ft 10 kts 329°
2026-05-04 10:41 51.95921 4.44603 -7 ft 13 kts 232°
2026-05-04 10:41 51.95911 4.44581 -7 ft 0 kts 236°
2026-05-04 10:41 51.95884 4.44513 -7 ft 25 kts 237°
2026-05-04 10:41 51.95675 4.43989 -5 ft 84 kts 237°
2026-05-04 10:42 51.95279 4.43019 153 ft 112 kts 236°
2026-05-04 10:42 51.94800 4.41902 513 ft 129 kts 235°
2026-05-04 10:42 51.94474 4.40507 1053 ft 139 kts 270°
2026-05-04 10:42 51.94863 4.39018 1728 ft 154 kts 312°
2026-05-04 10:43 51.95846 4.38253 2505 ft 168 kts 354°
2026-05-04 10:44 52.00916 4.49272 6008 ft 198 kts 78°
2026-05-04 10:45 52.01198 4.51474 6408 ft 200 kts 78°
2026-05-04 10:45 52.01479 4.53693 6786 ft 202 kts 77°
2026-05-04 10:45 52.02031 4.55777 7161 ft 203 kts 53°
2026-05-04 10:45 52.02985 4.57464 7545 ft 204 kts 44°
2026-05-04 10:46 52.03974 4.59122 7923 ft 205 kts 45°
2026-05-04 10:46 52.04965 4.60796 8329 ft 206 kts 45°
2026-05-04 10:46 52.05963 4.62474 8735 ft 207 kts 45°
2026-05-04 10:46 52.06970 4.64168 9143 ft 209 kts 44°
2026-05-04 10:47 52.07983 4.65872 9545 ft 210 kts 44°
2026-05-04 10:47 52.09002 4.67588 9972 ft 211 kts 44°
2026-05-04 10:47 52.10025 4.69309 10449 ft 213 kts 44°
2026-05-04 10:47 52.11056 4.71051 10862 ft 214 kts 44°
2026-05-04 10:49 52.16636 4.84278 13597 ft 220 kts 73°
2026-05-04 10:49 52.17092 4.86657 13998 ft 220 kts 73°
2026-05-04 10:50 52.17544 4.89045 14364 ft 220 kts 73°
2026-05-04 10:51 52.20722 5.05887 16965 ft 224 kts 73°
2026-05-04 10:52 52.21180 5.08325 17349 ft 225 kts 73°
2026-05-04 10:52 52.21636 5.10764 17731 ft 225 kts 73°
2026-05-04 10:52 52.22095 5.13204 18113 ft 225 kts 73°
2026-05-04 10:54 52.22216 5.30777 19886 ft 240 kts 131°
2026-05-04 10:54 52.21250 5.33005 20191 ft 242 kts 130°
2026-05-04 10:56 52.14377 5.48799 22197 ft 246 kts 132°
2026-05-04 10:56 52.13383 5.51077 22460 ft 247 kts 133°
2026-05-04 10:56 52.12387 5.53357 22718 ft 248 kts 133°
2026-05-04 10:57 52.11386 5.55650 22974 ft 249 kts 133°
2026-05-04 10:57 52.10379 5.57945 23229 ft 250 kts 133°
2026-05-04 10:57 52.09367 5.60245 23477 ft 250 kts 134°
2026-05-04 10:57 52.08352 5.62554 23717 ft 251 kts 133°
2026-05-04 10:58 52.07337 5.64875 23924 ft 252 kts 134°
2026-05-04 10:58 52.06318 5.67200 24136 ft 253 kts 134°
2026-05-04 10:58 52.05199 5.69373 24345 ft 250 kts 140°
2026-05-04 10:58 52.04046 5.71491 24548 ft 251 kts 140°
2026-05-04 10:59 52.02898 5.73633 24732 ft 252 kts 139°
2026-05-04 10:59 52.01751 5.75792 24930 ft 253 kts 139°
2026-05-04 10:59 52.00602 5.77957 25126 ft 253 kts 140°
2026-05-04 10:59 51.99434 5.80101 25321 ft 254 kts 140°
2026-05-04 11:00 51.98267 5.82265 25514 ft 255 kts 140°
2026-05-04 11:01 51.90019 5.97665 26769 ft 261 kts 140°
2026-05-04 11:02 51.88822 5.99891 26943 ft 262 kts 141°
2026-05-04 11:02 51.87633 6.02104 27163 ft 260 kts 141°
2026-05-04 11:05 51.70480 6.33539 28988 ft 282 kts 141°
2026-05-04 11:06 51.69167 6.35927 28993 ft 287 kts 141°
2026-05-04 11:06 51.67830 6.38359 28996 ft 292 kts 141°
2026-05-04 11:06 51.66473 6.40826 29003 ft 296 kts 141°
2026-05-04 11:06 51.65099 6.43316 28995 ft 299 kts 141°
2026-05-04 11:10 51.45139 6.79260 28963 ft 313 kts 140°
2026-05-04 11:12 51.33716 6.94368 28970 ft 301 kts 157°
2026-05-04 11:12 51.31934 6.96145 28986 ft 302 kts 157°
2026-05-04 11:12 51.28371 6.99696 28986 ft 302 kts 156°
2026-05-04 11:13 51.24809 7.03250 28984 ft 302 kts 157°
2026-05-04 11:13 51.21251 7.06788 28983 ft 301 kts 157°
2026-05-04 11:14 51.17693 7.10321 28979 ft 301 kts 157°
2026-05-04 11:16 51.03535 7.24313 28979 ft 298 kts 156°
2026-05-04 11:16 51.01768 7.26051 28984 ft 298 kts 156°
2026-05-04 11:16 51.00006 7.27785 28980 ft 298 kts 156°
2026-05-04 11:17 50.98244 7.29515 28987 ft 298 kts 156°
2026-05-04 11:17 50.96482 7.31244 28981 ft 298 kts 156°
2026-05-04 11:19 50.84168 7.43288 28981 ft 297 kts 156°
2026-05-04 11:19 50.82406 7.45005 28981 ft 297 kts 156°
2026-05-04 11:19 50.80644 7.46723 28986 ft 297 kts 156°
2026-05-04 11:19 50.78882 7.48434 28976 ft 297 kts 156°
2026-05-04 11:20 50.77123 7.50146 28970 ft 297 kts 156°
2026-05-04 11:20 50.75365 7.51855 28978 ft 297 kts 156°
2026-05-04 11:20 50.73605 7.53558 28978 ft 297 kts 156°
2026-05-04 11:20 50.71842 7.55267 28977 ft 298 kts 156°
2026-05-04 11:22 50.59457 7.67231 28983 ft 298 kts 156°
2026-05-04 11:22 50.57686 7.68934 28983 ft 298 kts 156°
2026-05-04 11:23 50.55918 7.70636 28983 ft 298 kts 156°
2026-05-04 11:23 50.54147 7.72338 28983 ft 298 kts 156°
2026-05-04 11:24 50.43553 7.82483 28978 ft 297 kts 156°
2026-05-04 11:25 50.41825 7.84284 28982 ft 298 kts 154°
2026-05-04 11:25 50.40090 7.86055 28982 ft 297 kts 155°
2026-05-04 11:25 50.38355 7.87813 28984 ft 297 kts 154°
2026-05-04 11:26 50.34896 7.91359 28985 ft 298 kts 154°
2026-05-04 11:27 50.22751 8.03749 28992 ft 299 kts 154°
2026-05-04 11:28 50.21198 8.05329 28993 ft 299 kts 154°
2026-05-04 11:28 50.19450 8.07103 28994 ft 300 kts 154°
2026-05-04 11:28 50.17702 8.08877 28994 ft 300 kts 154°
2026-05-04 11:28 50.15955 8.10651 28994 ft 300 kts 154°
2026-05-04 11:29 50.14207 8.12419 28994 ft 300 kts 154°
2026-05-04 11:29 50.12459 8.14186 28991 ft 299 kts 154°
2026-05-04 11:29 50.10718 8.15950 28991 ft 299 kts 154°
2026-05-04 11:29 50.08973 8.17713 28991 ft 298 kts 154°
2026-05-04 11:31 49.96791 8.29978 28992 ft 298 kts 154°
2026-05-04 11:33 49.84627 8.42268 29001 ft 303 kts 146°
2026-05-04 11:33 49.81551 8.46793 29005 ft 305 kts 143°
2026-05-04 11:34 49.78400 8.51048 28994 ft 296 kts 157°
2026-05-04 11:34 49.76513 8.52140 29002 ft 288 kts 170°
2026-05-04 11:34 49.74578 8.52938 29009 ft 288 kts 169°
2026-05-04 11:35 49.72672 8.53950 29015 ft 291 kts 164°
2026-05-04 11:35 49.70808 8.55196 29018 ft 292 kts 162°
2026-05-04 11:35 49.68942 8.56420 29018 ft 291 kts 163°
2026-05-04 11:35 49.67061 8.57564 29020 ft 290 kts 164°
2026-05-04 11:36 49.65814 8.58320 29016 ft 291 kts 164°
2026-05-04 11:36 49.63936 8.59482 29011 ft 291 kts 163°
2026-05-04 11:36 49.62059 8.60652 29011 ft 291 kts 163°
2026-05-04 11:36 49.60183 8.61813 29012 ft 291 kts 163°
2026-05-04 11:37 49.58303 8.62974 29012 ft 291 kts 163°
2026-05-04 11:37 49.56424 8.64134 29013 ft 291 kts 163°
2026-05-04 11:37 49.54544 8.65294 29013 ft 291 kts 163°
2026-05-04 11:37 49.52666 8.66453 29014 ft 291 kts 163°
2026-05-04 11:38 49.50785 8.67611 29014 ft 291 kts 163°
2026-05-04 11:38 49.48901 8.68770 29015 ft 292 kts 163°
2026-05-04 11:38 49.47014 8.69932 29013 ft 292 kts 164°
2026-05-04 11:38 49.45131 8.71089 29014 ft 292 kts 163°
2026-05-04 11:39 49.43245 8.72245 29015 ft 292 kts 163°
2026-05-04 11:39 49.41360 8.73403 29006 ft 292 kts 163°
2026-05-04 11:40 49.30091 8.80298 29008 ft 291 kts 163°
2026-05-04 11:41 49.28208 8.81447 29007 ft 291 kts 163°
2026-05-04 11:41 49.26323 8.82594 29011 ft 292 kts 163°
2026-05-04 11:41 49.24439 8.83743 29011 ft 292 kts 163°
2026-05-04 11:41 49.22553 8.84890 29010 ft 292 kts 163°
2026-05-04 11:42 49.20669 8.86035 29011 ft 291 kts 163°
2026-05-04 11:42 49.18784 8.87179 29008 ft 292 kts 163°
2026-05-04 11:42 49.16900 8.88323 29004 ft 291 kts 163°
2026-05-04 11:42 49.15017 8.89468 29005 ft 292 kts 163°
2026-05-04 11:43 49.13128 8.90609 29004 ft 292 kts 163°
2026-05-04 11:43 49.11240 8.91755 29006 ft 292 kts 163°
2026-05-04 11:43 49.09349 8.92898 29006 ft 292 kts 163°
2026-05-04 11:43 49.07459 8.94042 29007 ft 292 kts 163°
2026-05-04 11:44 49.05567 8.95185 29005 ft 293 kts 163°
2026-05-04 11:44 49.03673 8.96326 29002 ft 292 kts 163°
2026-05-04 11:44 49.01781 8.97469 29005 ft 292 kts 163°
2026-05-04 11:44 48.99891 8.98607 29004 ft 292 kts 163°
2026-05-04 11:45 48.98000 8.99745 29000 ft 293 kts 163°
2026-05-04 11:45 48.96105 9.00884 28997 ft 293 kts 163°
2026-05-04 11:45 48.94211 9.02024 28995 ft 293 kts 163°
2026-05-04 11:45 48.92339 9.03147 28997 ft 293 kts 163°
2026-05-04 11:46 48.90440 9.04288 28999 ft 293 kts 163°
2026-05-04 11:46 48.88542 9.05426 28997 ft 293 kts 163°
2026-05-04 11:46 48.86645 9.06562 28994 ft 293 kts 163°
2026-05-04 11:46 48.84747 9.07696 28995 ft 293 kts 163°
2026-05-04 11:47 48.82850 9.08832 28994 ft 293 kts 163°
2026-05-04 11:47 48.80948 9.09971 28991 ft 293 kts 163°
2026-05-04 11:47 48.79048 9.11104 28990 ft 294 kts 163°
2026-05-04 11:47 48.77146 9.12238 28990 ft 294 kts 163°
2026-05-04 11:48 48.75237 9.13376 28983 ft 295 kts 163°
2026-05-04 11:48 48.73328 9.14514 28988 ft 295 kts 163°
2026-05-04 11:48 48.71417 9.15652 28986 ft 295 kts 163°
2026-05-04 11:48 48.69505 9.16789 28984 ft 295 kts 164°
2026-05-04 11:49 48.67598 9.17923 28983 ft 295 kts 163°
2026-05-04 11:49 48.65689 9.19056 28984 ft 295 kts 163°
2026-05-04 11:49 48.63778 9.20190 28984 ft 295 kts 163°
2026-05-04 11:49 48.61866 9.21323 28984 ft 295 kts 163°
2026-05-04 11:50 48.59952 9.22455 28988 ft 295 kts 163°
2026-05-04 11:50 48.58039 9.23589 28989 ft 296 kts 163°
2026-05-04 11:50 48.56120 9.24723 28989 ft 296 kts 163°
2026-05-04 11:50 48.54204 9.25855 28989 ft 296 kts 163°
2026-05-04 11:51 48.52287 9.26987 28990 ft 296 kts 163°
2026-05-04 11:51 48.50372 9.28116 28995 ft 296 kts 163°
2026-05-04 11:51 48.48454 9.29248 28995 ft 296 kts 163°
2026-05-04 11:51 48.46538 9.30376 28995 ft 296 kts 163°
2026-05-04 11:52 48.44621 9.31503 28992 ft 296 kts 163°
2026-05-04 11:52 48.42729 9.32614 28992 ft 296 kts 163°
2026-05-04 11:52 48.40809 9.33744 28992 ft 296 kts 163°
2026-05-04 11:52 48.38892 9.34871 28992 ft 296 kts 163°
2026-05-04 11:53 48.36970 9.35995 28990 ft 296 kts 163°
2026-05-04 11:53 48.35048 9.37122 28990 ft 296 kts 163°
2026-05-04 11:53 48.33126 9.38248 28991 ft 297 kts 163°
2026-05-04 11:53 48.31201 9.39374 28990 ft 297 kts 163°
2026-05-04 11:55 48.17731 9.47228 28983 ft 295 kts 163°
2026-05-04 11:55 48.15820 9.48342 28980 ft 295 kts 163°
2026-05-04 11:56 48.13904 9.49454 28978 ft 295 kts 163°
2026-05-04 11:56 48.11990 9.50566 28978 ft 296 kts 163°
2026-05-04 11:56 48.10069 9.51685 28977 ft 296 kts 163°
2026-05-04 11:56 48.08146 9.52795 28977 ft 297 kts 164°
2026-05-04 11:57 48.06216 9.53910 28977 ft 298 kts 163°
2026-05-04 11:57 48.04283 9.55026 28977 ft 298 kts 163°
2026-05-04 11:57 48.02358 9.56167 28980 ft 300 kts 161°
2026-05-04 11:57 48.00572 9.57847 28986 ft 306 kts 148°
2026-05-04 11:58 47.98865 9.59732 28982 ft 305 kts 149°
2026-05-04 11:58 47.95414 9.63429 28982 ft 306 kts 149°
2026-05-04 11:59 47.91970 9.67163 28982 ft 306 kts 149°
2026-05-04 11:59 47.88513 9.70887 28984 ft 307 kts 149°
2026-05-04 12:00 47.85058 9.74609 28983 ft 307 kts 149°
2026-05-04 12:00 47.81601 9.78318 28979 ft 306 kts 149°
2026-05-04 12:01 47.78170 9.82006 28985 ft 306 kts 149°
2026-05-04 12:02 47.66046 9.94964 28981 ft 307 kts 149°
2026-05-04 12:03 47.62571 9.98669 28985 ft 308 kts 149°
2026-05-04 12:03 47.59088 10.02370 28986 ft 308 kts 149°
2026-05-04 12:04 47.55601 10.06072 28973 ft 308 kts 149°
2026-05-04 12:04 47.52122 10.09759 28996 ft 307 kts 149°
2026-05-04 12:05 47.48638 10.13444 28994 ft 309 kts 148°
2026-05-04 12:05 47.45134 10.17141 28994 ft 311 kts 149°
2026-05-04 12:06 47.41524 10.20605 29011 ft 309 kts 153°
2026-05-04 12:06 47.37879 10.23936 29010 ft 308 kts 152°
2026-05-04 12:07 47.34242 10.27254 29011 ft 308 kts 153°
2026-05-04 12:07 47.30601 10.30561 29021 ft 306 kts 153°
2026-05-04 12:08 47.27009 10.33793 29032 ft 303 kts 153°
2026-05-04 12:08 47.23421 10.37026 29050 ft 301 kts 153°
2026-05-04 12:09 47.21632 10.38631 29044 ft 300 kts 152°
2026-05-04 12:09 47.19853 10.40229 29045 ft 300 kts 152°
2026-05-04 12:09 47.18066 10.41829 29047 ft 300 kts 152°
2026-05-04 12:09 47.16282 10.43430 29048 ft 301 kts 152°
2026-05-04 12:10 47.12693 10.46647 29055 ft 303 kts 152°
2026-05-04 12:10 47.09091 10.49867 29045 ft 303 kts 152°
2026-05-04 12:11 47.05453 10.52969 29052 ft 300 kts 161°
2026-05-04 12:11 47.03468 10.53889 29054 ft 299 kts 166°
2026-05-04 12:11 47.01482 10.54783 29053 ft 298 kts 165°
2026-05-04 12:12 46.99512 10.55698 29056 ft 297 kts 166°
2026-05-04 12:12 46.97532 10.56590 29062 ft 297 kts 166°
2026-05-04 12:12 46.95555 10.57479 29065 ft 298 kts 166°
2026-05-04 12:12 46.93574 10.58376 29063 ft 298 kts 166°
2026-05-04 12:13 46.91591 10.59277 29062 ft 298 kts 166°
2026-05-04 12:14 46.77946 10.66749 29080 ft 301 kts 160°
2026-05-04 12:15 46.74082 10.69143 29086 ft 302 kts 160°
2026-05-04 12:15 46.70207 10.71531 29104 ft 303 kts 160°
2026-05-04 12:16 46.66320 10.73929 29092 ft 303 kts 161°
2026-05-04 12:16 46.62431 10.76327 29110 ft 304 kts 161°
2026-05-04 12:17 46.58540 10.78709 29093 ft 303 kts 160°
2026-05-04 12:17 46.54662 10.81098 29104 ft 303 kts 160°
2026-05-04 12:18 46.50784 10.83471 29105 ft 302 kts 160°
2026-05-04 12:18 46.46912 10.85840 29088 ft 301 kts 160°
2026-05-04 12:19 46.43053 10.88202 29100 ft 301 kts 160°
2026-05-04 12:19 46.39195 10.90549 29178 ft 300 kts 160°
2026-05-04 12:20 46.35333 10.92903 29188 ft 302 kts 160°
2026-05-04 12:20 46.31450 10.95269 29202 ft 303 kts 160°
2026-05-04 12:21 46.27551 10.97637 29202 ft 304 kts 160°
2026-05-04 12:21 46.23660 10.99982 29203 ft 305 kts 160°
2026-05-04 12:22 46.19747 11.02353 29197 ft 305 kts 160°
2026-05-04 12:22 46.15839 11.04720 29188 ft 304 kts 160°
2026-05-04 12:23 46.11922 11.07080 29168 ft 305 kts 160°
2026-05-04 12:23 46.08004 11.09442 29161 ft 305 kts 160°
2026-05-04 12:24 46.04098 11.11792 29152 ft 304 kts 160°
2026-05-04 12:24 46.00190 11.14140 29141 ft 305 kts 161°
2026-05-04 12:25 45.96939 11.16086 29129 ft 305 kts 161°
2026-05-04 12:25 45.93015 11.18438 29120 ft 306 kts 161°
2026-05-04 12:26 45.89076 11.20793 29114 ft 306 kts 161°
2026-05-04 12:26 45.85151 11.23137 29112 ft 305 kts 161°
2026-05-04 12:27 45.81228 11.25475 29107 ft 305 kts 161°
2026-05-04 12:27 45.77313 11.27804 29106 ft 304 kts 161°
2026-05-04 12:28 45.73397 11.30133 29098 ft 305 kts 161°
2026-05-04 12:28 45.69487 11.32451 29099 ft 304 kts 161°
2026-05-04 12:29 45.65608 11.34751 29084 ft 303 kts 161°
2026-05-04 12:29 45.61710 11.37056 29082 ft 303 kts 161°
2026-05-04 12:30 45.57822 11.39354 29085 ft 302 kts 161°
2026-05-04 12:30 45.53942 11.41643 29084 ft 301 kts 161°
2026-05-04 12:31 45.50071 11.43920 29084 ft 301 kts 161°
2026-05-04 12:31 45.46197 11.46201 29085 ft 301 kts 161°
2026-05-04 12:32 45.40373 11.49617 29088 ft 302 kts 161°
2026-05-04 12:33 45.36494 11.51891 29082 ft 301 kts 161°
2026-05-04 12:33 45.32642 11.54143 29087 ft 301 kts 161°
2026-05-04 12:33 45.30698 11.55278 28930 ft 306 kts 161°
2026-05-04 12:34 45.28681 11.56454 28394 ft 319 kts 160°
2026-05-04 12:34 45.26624 11.57655 27868 ft 320 kts 160°
2026-05-04 12:34 45.24560 11.58858 27356 ft 321 kts 160°
2026-05-04 12:34 45.22494 11.60059 26850 ft 322 kts 160°
2026-05-04 12:35 45.20415 11.61266 26348 ft 323 kts 160°
2026-05-04 12:35 45.18325 11.62480 25853 ft 326 kts 160°
2026-05-04 12:35 45.16234 11.63702 25365 ft 325 kts 160°
2026-05-04 12:35 45.14138 11.64919 24897 ft 325 kts 160°
2026-05-04 12:36 45.12042 11.66133 24431 ft 326 kts 160°
2026-05-04 12:36 45.09945 11.67352 23972 ft 326 kts 160°
2026-05-04 12:36 45.07843 11.68571 23490 ft 326 kts 160°
2026-05-04 12:36 45.05737 11.69777 22948 ft 326 kts 160°
2026-05-04 12:37 45.03638 11.70981 22419 ft 325 kts 160°
2026-05-04 12:37 45.01551 11.72198 21895 ft 324 kts 160°
2026-05-04 12:37 44.99471 11.73405 21385 ft 322 kts 160°
2026-05-04 12:37 44.97409 11.74594 20883 ft 318 kts 160°
2026-05-04 12:38 44.95370 11.75761 20388 ft 314 kts 160°
2026-05-04 12:38 44.93360 11.76923 19900 ft 310 kts 160°
2026-05-04 12:38 44.91377 11.78072 19418 ft 307 kts 160°
2026-05-04 12:38 44.89405 11.79203 18953 ft 304 kts 160°
2026-05-04 12:39 44.87451 11.80322 18484 ft 302 kts 160°
2026-05-04 12:39 44.85512 11.81437 17961 ft 300 kts 160°
2026-05-04 12:39 44.83590 11.82540 17437 ft 297 kts 160°
2026-05-04 12:39 44.81687 11.83637 16915 ft 294 kts 160°
2026-05-04 12:40 44.79801 11.84718 16397 ft 291 kts 160°
2026-05-04 12:40 44.77958 11.85767 15898 ft 288 kts 159°
2026-05-04 12:40 44.76111 11.86832 15400 ft 285 kts 159°
2026-05-04 12:40 44.74283 11.87873 14916 ft 282 kts 159°
2026-05-04 12:41 44.72470 11.88909 14435 ft 280 kts 159°
2026-05-04 12:41 44.70672 11.89940 13946 ft 278 kts 159°
2026-05-04 12:41 44.68883 11.90957 13388 ft 276 kts 159°
2026-05-04 12:41 44.67108 11.91973 12847 ft 274 kts 159°
2026-05-04 12:42 44.65344 11.92976 12306 ft 272 kts 159°
2026-05-04 12:42 44.63591 11.93970 11777 ft 271 kts 159°
2026-05-04 12:42 44.61854 11.94964 11256 ft 269 kts 159°
2026-05-04 12:42 44.60067 11.95658 10742 ft 266 kts 174°
2026-05-04 12:43 44.58232 11.95596 10249 ft 263 kts 189°
2026-05-04 12:43 44.56495 11.94838 9753 ft 261 kts 205°
2026-05-04 12:43 44.54916 11.93619 9290 ft 257 kts 208°
2026-05-04 12:43 44.53360 11.92428 8827 ft 253 kts 207°
2026-05-04 12:44 44.51828 11.91270 8403 ft 249 kts 207°
2026-05-04 12:44 44.50317 11.90111 7977 ft 246 kts 207°
2026-05-04 12:44 44.48825 11.88957 7555 ft 244 kts 208°
2026-05-04 12:44 44.47377 11.87823 7137 ft 233 kts 208°
2026-05-04 12:45 44.45995 11.86728 6772 ft 224 kts 208°
2026-05-04 12:45 44.44656 11.85672 6398 ft 219 kts 208°
2026-05-04 12:45 44.43341 11.84644 6039 ft 215 kts 208°
2026-05-04 12:45 44.42036 11.83635 5685 ft 214 kts 207°
2026-05-04 12:46 44.40754 11.82633 5333 ft 209 kts 208°
2026-05-04 12:46 44.39494 11.81652 4987 ft 207 kts 208°
2026-05-04 12:46 44.38246 11.80737 4640 ft 198 kts 201°
2026-05-04 12:46 44.36924 11.80625 4274 ft 190 kts 169°
2026-05-04 12:47 44.35681 11.81171 3988 ft 184 kts 164°
2026-05-04 12:47 44.34457 11.81595 3740 ft 179 kts 170°
2026-05-04 12:47 44.33258 11.81987 3486 ft 174 kts 171°
2026-05-04 12:47 44.32113 11.82362 3232 ft 170 kts 169°
2026-05-04 12:48 44.31012 11.82932 2979 ft 168 kts 159°
2026-05-04 12:48 44.30019 11.83802 2725 ft 169 kts 147°
2026-05-04 12:48 44.29210 11.84976 2450 ft 169 kts 129°
2026-05-04 12:48 44.28550 11.86338 2218 ft 169 kts 127°
2026-05-04 12:49 44.27953 11.87652 2206 ft 153 kts 124°
2026-05-04 12:49 44.27404 11.88898 2201 ft 149 kts 125°
2026-05-04 12:49 44.26865 11.90109 2177 ft 144 kts 126°
2026-05-04 12:49 44.26339 11.91248 2182 ft 134 kts 126°
2026-05-04 12:50 44.25866 11.92322 2171 ft 128 kts 127°
2026-05-04 12:50 44.25385 11.93403 2058 ft 133 kts 129°
2026-05-04 12:50 44.24899 11.94458 1889 ft 126 kts 128°
2026-05-04 12:50 44.24427 11.95501 1740 ft 131 kts 126°
2026-05-04 12:51 44.23926 11.96616 1615 ft 139 kts 124°
2026-05-04 12:51 44.23428 11.97734 1473 ft 130 kts 125°
2026-05-04 12:51 44.22952 11.98792 1343 ft 128 kts 123°
2026-05-04 12:51 44.22475 11.99849 1180 ft 126 kts 123°
2026-05-04 12:52 44.22054 12.00746 1087 ft 107 kts 124°
2026-05-04 12:52 44.21614 12.01580 858 ft 104 kts 125°
2026-05-04 12:52 44.21226 12.02356 694 ft 92 kts 121°
2026-05-04 12:52 44.20923 12.03134 599 ft 90 kts 115°
2026-05-04 12:53 44.20642 12.03889 459 ft 83 kts 114°
2026-05-04 12:53 44.20397 12.04576 324 ft 77 kts 114°
2026-05-04 12:53 44.20148 12.05258 217 ft 83 kts 113°
2026-05-04 12:53 44.19889 12.05966 110 ft 75 kts 115°
2026-05-04 12:54 44.19701 12.06482 106 ft 41 kts 117°
2026-05-04 12:54 44.19611 12.06732 108 ft 19 kts 108°
2026-05-04 12:54 44.19652 12.06832 108 ft 10 kts 21°
2026-05-04 12:54 44.19717 12.06879 107 ft 8 kts 28°
2026-05-04 12:55 44.19712 12.06939 107 ft 9 kts 116°
2026-05-04 12:55 44.19680 12.07029 107 ft 10 kts 119°
2026-05-04 12:55 44.19648 12.07114 107 ft 9 kts 117°
2026-05-04 12:55 44.19618 12.07199 107 ft 8 kts 115°
2026-05-04 12:56 44.19627 12.07235 107 ft 8 kts 29°
2026-05-04 12:56 44.19646 12.07244 107 ft 2 kts 308°
2026-05-04 12:56 44.19651 12.07229 107 ft 2 kts 297°
2026-05-04 12:56 44.19653 12.07224 107 ft 0 kts 297°